Welcome to Northern Hawkes Bay. New Zealand.
PWS Header
      nz Flag



Hit Counter


W3C Valid W3C Valid logo


    Wairoa

Select any of the Stations below to visit their websites.










Historic Data from Weather Underground
Select the location of interest below. Wairoa is the default. Please have patience, this Data is slow to load in.
Northern Hawkes Bay Historical Data
Daily Summary for July 2, 2017 Units:  Metric    English   Both
« Previous Day
Next Day »
Daily Weekly Monthly Yearly Custom
  High: Low: Average:
Temperature: 15.8 °C 10.4 °C 13.2 °C
Dew Point: 12.6 °C 8.2 °C 10.2 °C
Humidity: 99% 64% 83%
Wind Speed: 18.3km/h 0.0km/h 6km/h
Wind Gust: 35.6km/h - -
Wind- - East
Pressure: 1014.4 hPa 1005.0 hPa -
Precipitation: 12.7 mm    
Historical Graphs
 
 
Tabular Data for July 2, 2017
Time Temperature Dew Point Pressure Wind Wind Speed Wind Gust Humidity Rainfall Rate (Hourly) solar
00:00 14.6 °C 8.3 °C 1014.4 hPa NE 11.1 km/h 20.9 km/h 66% 0.0 mm 0 W/m2
00:05 14.6 °C 8.3 °C 1014.4 hPa NE 6.1 km/h 20.9 km/h 66% 0.0 mm 0 W/m2
00:10 14.6 °C 8.3 °C 1014.4 hPa NE 6.1 km/h 18.3 km/h 66% 0.0 mm 0 W/m2
00:15 14.7 °C 8.4 °C 1014.4 hPa NE 14.8 km/h 19.5 km/h 66% 0.0 mm 0 W/m2
00:17 14.7 °C 8.4 °C 1014.4 hPa NE 8.7 km/h 19.5 km/h 66% 0.0 mm 0 W/m2
00:22 14.7 °C 8.2 °C 1014.4 hPa NE 8.7 km/h 20.9 km/h 65% 0.0 mm 0 W/m2
00:27 14.9 °C 8.4 °C 1014.1 hPa NE 9.7 km/h 20.9 km/h 65% 0.0 mm 0 W/m2
00:32 14.8 °C 8.3 °C 1014.1 hPa ENE 8.7 km/h 20.9 km/h 65% 0.0 mm 0 W/m2
00:37 14.8 °C 8.3 °C 1014.1 hPa NE 13.4 km/h 29.4 km/h 65% 0.0 mm 0 W/m2
00:42 14.9 °C 8.4 °C 1013.8 hPa NE 17.2 km/h 30.6 km/h 65% 0.0 mm 0 W/m2
00:45 14.9 °C 8.4 °C 1014.1 hPa NE 12.2 km/h 30.6 km/h 65% 0.0 mm 0 W/m2
00:50 15.0 °C 8.3 °C 1013.8 hPa NE 15.8 km/h 30.6 km/h 64% 0.0 mm 0 W/m2
00:55 15.0 °C 8.3 °C 1013.8 hPa ENE 7.2 km/h 25.6 km/h 64% 0.0 mm 0 W/m2
01:00 15.0 °C 8.3 °C 1013.8 hPa ENE 11.1 km/h 25.6 km/h 64% 0.0 mm 0 W/m2
01:05 15.0 °C 8.3 °C 1013.8 hPa NE 13.4 km/h 25.6 km/h 64% 0.0 mm 0 W/m2
01:10 15.0 °C 8.3 °C 1013.4 hPa NNE 9.7 km/h 24.5 km/h 64% 0.0 mm 0 W/m2
01:15 14.8 °C 8.3 °C 1013.4 hPa NE 8.7 km/h 24.5 km/h 65% 0.0 mm 0 W/m2
01:20 14.7 °C 8.2 °C 1013.4 hPa NE 9.7 km/h 20.9 km/h 65% 0.0 mm 0 W/m2
01:25 14.9 °C 8.4 °C 1013.4 hPa NE 12.2 km/h 23.3 km/h 65% 0.0 mm 0 W/m2
01:30 14.9 °C 8.4 °C 1013.4 hPa NE 9.7 km/h 23.3 km/h 65% 0.0 mm 0 W/m2
01:35 14.9 °C 8.4 °C 1013.4 hPa NE 8.7 km/h 20.9 km/h 65% 0.0 mm 0 W/m2
01:40 14.9 °C 8.4 °C 1013.4 hPa NE 7.2 km/h 20.9 km/h 65% 0.0 mm 0 W/m2
01:45 14.7 °C 8.4 °C 1013.4 hPa NE 7.2 km/h 19.5 km/h 66% 0.0 mm 0 W/m2
01:50 14.6 °C 8.3 °C 1013.4 hPa NE 9.7 km/h 19.5 km/h 66% 0.0 mm 0 W/m2
01:55 14.7 °C 8.4 °C 1013.1 hPa NNE 7.2 km/h 19.5 km/h 66% 0.0 mm 0 W/m2
02:15 14.7 °C 8.4 °C 1013.1 hPa NE 15.8 km/h 21.9 km/h 66% 0.0 mm 0 W/m2
02:20 14.8 °C 8.5 °C 1013.1 hPa NE 12.2 km/h 20.9 km/h 66% 0.0 mm 0 W/m2
02:25 14.7 °C 8.4 °C 1012.8 hPa NNE 9.7 km/h 20.9 km/h 66% 0.0 mm 0 W/m2
02:30 14.8 °C 8.5 °C 1013.1 hPa NNE 11.1 km/h 31.7 km/h 66% 0.0 mm 0 W/m2
02:35 14.7 °C 8.4 °C 1012.8 hPa NE 15.8 km/h 31.7 km/h 66% 0.0 mm 0 W/m2
02:40 14.8 °C 8.7 °C 1012.8 hPa ENE 9.7 km/h 24.5 km/h 67% 0.0 mm 0 W/m2
02:45 14.7 °C 8.7 °C 1012.4 hPa NE 13.4 km/h 24.5 km/h 67% 0.0 mm 0 W/m2
02:50 14.8 °C 8.5 °C 1012.4 hPa NE 9.7 km/h 24.5 km/h 66% 0.0 mm 0 W/m2
02:55 14.8 °C 8.5 °C 1012.1 hPa NNE 9.7 km/h 24.5 km/h 66% 0.0 mm 0 W/m2
03:00 14.8 °C 8.5 °C 1012.1 hPa NNE 13.4 km/h 24.5 km/h 66% 0.0 mm 0 W/m2
03:05 14.9 °C 8.6 °C 1012.1 hPa NNE 14.8 km/h 27.0 km/h 66% 0.0 mm 0 W/m2
03:10 14.9 °C 8.6 °C 1012.1 hPa NNE 13.4 km/h 27.0 km/h 66% 0.0 mm 0 W/m2
03:15 14.9 °C 8.6 °C 1012.1 hPa NE 7.2 km/h 25.6 km/h 66% 0.0 mm 0 W/m2
03:20 14.9 °C 8.8 °C 1012.1 hPa NE 11.1 km/h 24.5 km/h 67% 0.0 mm 0 W/m2
03:25 14.9 °C 8.8 °C 1011.7 hPa NE 6.1 km/h 20.9 km/h 67% 0.0 mm 0 W/m2
03:30 14.9 °C 8.8 °C 1011.7 hPa NE 9.7 km/h 28.0 km/h 67% 0.0 mm 0 W/m2
03:35 15.0 °C 8.7 °C 1011.7 hPa NE 14.8 km/h 28.0 km/h 66% 0.0 mm 0 W/m2
03:40 15.1 °C 8.8 °C 1011.7 hPa NNE 11.1 km/h 25.6 km/h 66% 0.0 mm 0 W/m2
03:45 15.2 °C 8.9 °C 1011.4 hPa NE 11.1 km/h 30.6 km/h 66% 0.0 mm 0 W/m2
03:50 15.1 °C 8.8 °C 1011.4 hPa ENE 12.2 km/h 35.6 km/h 66% 0.0 mm 0 W/m2
03:55 15.1 °C 8.8 °C 1011.4 hPa NE 11.1 km/h 35.6 km/h 66% 0.0 mm 0 W/m2
04:00 15.2 °C 8.9 °C 1011.4 hPa NE 7.2 km/h 31.7 km/h 66% 0.0 mm 0 W/m2
04:05 15.2 °C 8.9 °C 1011.4 hPa NE 9.7 km/h 28.0 km/h 66% 0.0 mm 0 W/m2
04:10 15.2 °C 8.7 °C 1011.4 hPa NE 6.1 km/h 21.9 km/h 65% 0.0 mm 0 W/m2
04:15 15.2 °C 8.9 °C 1011.1 hPa NE 6.1 km/h 19.5 km/h 66% 0.0 mm 0 W/m2
04:20 15.1 °C 8.8 °C 1011.1 hPa NNE 8.7 km/h 18.3 km/h 66% 0.0 mm 0 W/m2
04:25 15.2 °C 8.7 °C 1011.1 hPa NE 3.5 km/h 18.3 km/h 65% 0.0 mm 0 W/m2
04:30 15.1 °C 8.8 °C 1011.1 hPa NE 5.0 km/h 17.2 km/h 66% 0.0 mm 0 W/m2
04:35 15.1 °C 8.8 °C 1010.7 hPa NE 5.0 km/h 14.8 km/h 66% 0.0 mm 0 W/m2
04:40 15.1 °C 8.8 °C 1010.7 hPa NE 5.0 km/h 14.8 km/h 66% 0.0 mm 0 W/m2
04:45 14.8 °C 8.7 °C 1010.7 hPa NE 3.5 km/h 13.4 km/h 67% 0.0 mm 0 W/m2
04:50 14.6 °C 8.8 °C 1010.7 hPa NE 5.0 km/h 7.2 km/h 68% 0.0 mm 0 W/m2
04:55 14.5 °C 8.7 °C 1010.7 hPa NE 7.2 km/h 9.7 km/h 68% 0.0 mm 0 W/m2
05:00 14.7 °C 8.8 °C 1010.7 hPa NE 8.7 km/h 15.8 km/h 68% 0.0 mm 0 W/m2
05:05 14.8 °C 8.9 °C 1010.7 hPa ENE 2.6 km/h 15.8 km/h 68% 0.0 mm 0 W/m2
05:10 14.9 °C 9.1 °C 1010.7 hPa NE 9.7 km/h 12.2 km/h 68% 0.0 mm 0 W/m2
05:15 15.0 °C 8.9 °C 1010.7 hPa NE 8.7 km/h 13.4 km/h 67% 0.0 mm 0 W/m2
05:20 15.3 °C 9.2 °C 1010.7 hPa NE 12.2 km/h 20.9 km/h 67% 0.0 mm 0 W/m2
05:25 15.6 °C 9.3 °C 1010.7 hPa NE 12.2 km/h 21.9 km/h 66% 0.0 mm 0 W/m2
05:30 15.7 °C 9.4 °C 1010.4 hPa NE 5.0 km/h 27.0 km/h 66% 0.0 mm 0 W/m2
05:35 15.8 °C 9.2 °C 1010.7 hPa NE 17.2 km/h 29.4 km/h 65% 0.0 mm 0 W/m2
05:40 15.8 °C 9.2 °C 1010.4 hPa NNE 5.0 km/h 29.4 km/h 65% 0.0 mm 0 W/m2
05:45 15.7 °C 9.4 °C 1010.7 hPa NNE 7.2 km/h 27.0 km/h 66% 0.0 mm 0 W/m2
05:50 15.7 °C 9.2 °C 1010.7 hPa NNE 9.7 km/h 24.5 km/h 65% 0.0 mm 0 W/m2
05:55 15.7 °C 9.4 °C 1011.1 hPa NE 6.1 km/h 24.5 km/h 66% 0.0 mm 0 W/m2
06:00 15.6 °C 9.3 °C 1010.7 hPa NE 12.2 km/h 23.3 km/h 66% 0.0 mm 0 W/m2
06:05 15.6 °C 9.3 °C 1010.7 hPa NE 6.1 km/h 18.3 km/h 66% 0.0 mm 0 W/m2
06:10 15.5 °C 9.2 °C 1010.7 hPa NNE 7.2 km/h 18.3 km/h 66% 0.0 mm 0 W/m2
06:15 15.5 °C 9.2 °C 1010.7 hPa NNE 9.7 km/h 18.3 km/h 66% 0.0 mm 0 W/m2
06:20 15.6 °C 9.3 °C 1011.1 hPa NNE 7.2 km/h 18.3 km/h 66% 0.0 mm 0 W/m2
06:25 15.1 °C 8.8 °C 1010.7 hPa NE 9.7 km/h 17.2 km/h 66% 0.0 mm 0 W/m2
06:30 14.9 °C 9.3 °C 1011.1 hPa ENE 5.0 km/h 17.2 km/h 69% 0.0 mm 0 W/m2
06:35 14.8 °C 9.2 °C 1011.1 hPa NE 6.1 km/h 17.2 km/h 69% 0.0 mm 0 W/m2
06:40 14.9 °C 9.3 °C 1010.7 hPa NE 6.1 km/h 13.4 km/h 69% 0.0 mm 0 W/m2
06:45 14.9 °C 9.3 °C 1010.7 hPa NE 5.0 km/h 17.2 km/h 69% 0.0 mm 0 W/m2
06:50 14.8 °C 9.2 °C 1011.1 hPa NE 14.8 km/h 27.0 km/h 69% 0.0 mm 0 W/m2
06:55 14.9 °C 9.3 °C 1011.1 hPa NE 5.0 km/h 27.0 km/h 69% 0.0 mm 0 W/m2
07:00 14.6 °C 9.2 °C 1011.1 hPa NE 3.5 km/h 27.0 km/h 70% 0.0 mm 0 W/m2
07:05 14.6 °C 9.4 °C 1011.1 hPa NE 6.1 km/h 9.7 km/h 71% 0.0 mm 0 W/m2
07:10 14.6 °C 9.4 °C 1011.4 hPa NE 3.5 km/h 8.7 km/h 71% 0.0 mm 0 W/m2
07:15 14.5 °C 9.3 °C 1011.1 hPa ENE 6.1 km/h 9.7 km/h 71% 0.0 mm 0 W/m2
07:20 14.7 °C 9.5 °C 1011.4 hPa NE 6.1 km/h 9.7 km/h 71% 0.0 mm 0 W/m2
07:25 14.6 °C 9.4 °C 1011.4 hPa NE 5.0 km/h 9.7 km/h 71% 0.0 mm 0 W/m2
07:30 14.5 °C 9.5 °C 1011.4 hPa NE 12.2 km/h 17.2 km/h 72% 0.0 mm 0 W/m2
07:35 14.8 °C 10.0 °C 1011.4 hPa NE 3.5 km/h 17.2 km/h 73% 0.0 mm 0 W/m2
07:40 15.0 °C 9.8 °C 1011.4 hPa NE 3.5 km/h 17.2 km/h 71% 0.0 mm 0 W/m2
07:45 15.0 °C 10.0 °C 1011.4 hPa NNE 5.0 km/h 14.8 km/h 72% 0.0 mm 0 W/m2
07:50 14.8 °C 10.2 °C 1011.7 hPa NNE 5.0 km/h 14.8 km/h 74% 0.0 mm 0 W/m2
07:55 14.6 °C 10.2 °C 1011.7 hPa North 2.6 km/h 11.1 km/h 75% 0.0 mm 0 W/m2
08:00 14.3 °C 10.3 °C 1011.7 hPa NNE 1.1 km/h 13.4 km/h 77% 0.0 mm 0 W/m2
08:06 13.9 °C 10.1 °C 1011.7 hPa NNE 2.6 km/h 13.4 km/h 78% 0.3 mm 0 W/m2
08:11 13.7 °C 10.3 °C 1011.7 hPa Calm   3.5 km/h 80% 0.3 mm 0 W/m2
08:16 13.5 °C 10.1 °C 1011.7 hPa North 2.6 km/h 3.5 km/h 80% 0.5 mm 0 W/m2
08:21 13.3 °C 10.5 °C 1012.1 hPa NW 7.2 km/h 9.7 km/h 83% 1.0 mm 0 W/m2
08:26 12.6 °C 10.3 °C 1012.1 hPa WNW 7.2 km/h 9.7 km/h 86% 1.8 mm 1 W/m2
08:31 12.1 °C 10.3 °C 1012.4 hPa NW 5.0 km/h 11.1 km/h 89% 2.8 mm 0 W/m2
08:36 11.9 °C 10.7 °C 1012.1 hPa NW 1.1 km/h 11.1 km/h 92% 2.8 mm 2 W/m2
08:41 11.8 °C 10.7 °C 1012.4 hPa North 2.6 km/h 7.2 km/h 93% 3.3 mm 3 W/m2
08:46 11.7 °C 10.8 °C 1012.4 hPa NE 2.6 km/h 7.2 km/h 94% 3.6 mm 4 W/m2
08:51 11.7 °C 10.9 °C 1011.7 hPa Calm   7.2 km/h 95% 3.8 mm 6 W/m2
08:56 11.7 °C 11.1 °C 1012.1 hPa ENE 2.6 km/h 6.1 km/h 96% 4.3 mm 9 W/m2
09:01 11.8 °C 11.2 °C 1012.1 hPa NE 1.1 km/h 8.7 km/h 96% 4.3 mm 9 W/m2
09:06 11.7 °C 11.2 °C 1011.7 hPa NE 6.1 km/h 8.7 km/h 97% 4.6 mm 9 W/m2
09:11 11.7 °C 11.4 °C 1011.7 hPa NE 3.5 km/h 9.7 km/h 98% 4.8 mm 11 W/m2
09:16 11.7 °C 11.4 °C 1011.7 hPa NE 5.0 km/h 9.7 km/h 98% 4.8 mm 16 W/m2
09:21 11.7 °C 11.4 °C 1011.7 hPa NE 5.0 km/h 9.7 km/h 98% 4.8 mm 19 W/m2
09:26 11.7 °C 11.4 °C 1011.7 hPa ENE 6.1 km/h 9.7 km/h 98% 3.8 mm 19 W/m2
09:31 11.7 °C 11.4 °C 1011.7 hPa ENE 8.7 km/h 11.1 km/h 98% 3.6 mm 24 W/m2
09:36 11.7 °C 11.4 °C 1011.7 hPa ENE 6.1 km/h 11.1 km/h 98% 3.6 mm 18 W/m2
09:41 11.7 °C 11.4 °C 1011.7 hPa ENE 8.7 km/h 15.8 km/h 98% 3.6 mm 13 W/m2
09:46 11.7 °C 11.4 °C 1011.7 hPa ENE 9.7 km/h 15.8 km/h 98% 3.6 mm 16 W/m2
09:51 11.7 °C 11.4 °C 1011.7 hPa ENE 7.2 km/h 15.8 km/h 98% 3.6 mm 17 W/m2
09:56 11.7 °C 11.4 °C 1011.4 hPa ENE 12.2 km/h 18.3 km/h 98% 3.6 mm 19 W/m2
10:01 11.8 °C 11.5 °C 1011.1 hPa East 11.1 km/h 19.5 km/h 98% 3.6 mm 20 W/m2
10:06 11.8 °C 11.5 °C 1010.4 hPa ENE 14.8 km/h 31.7 km/h 98% 3.6 mm 24 W/m2
10:11 12.0 °C 11.6 °C 1010.0 hPa East 12.2 km/h 34.3 km/h 97% 3.3 mm 38 W/m2
10:16 12.2 °C 11.7 °C 1010.4 hPa East 12.2 km/h 34.3 km/h 97% 3.0 mm 46 W/m2
10:21 12.3 °C 11.8 °C 1010.4 hPa East 18.3 km/h 28.0 km/h 97% 2.3 mm 54 W/m2
10:26 12.5 °C 12.1 °C 1010.7 hPa ENE 8.7 km/h 25.6 km/h 97% 2.3 mm 78 W/m2
10:31 12.6 °C 12.2 °C 1010.7 hPa ENE 6.1 km/h 25.6 km/h 97% 2.0 mm 73 W/m2
10:36 12.6 °C 12.2 °C 1010.4 hPa ENE 5.0 km/h 18.3 km/h 97% 1.8 mm 71 W/m2
10:41 12.7 °C 12.2 °C 1010.7 hPa East 2.6 km/h 11.1 km/h 97% 1.5 mm 65 W/m2
10:46 12.8 °C 12.3 °C 1010.7 hPa NE 2.6 km/h 8.7 km/h 97% 1.3 mm 63 W/m2
10:51 12.8 °C 12.3 °C 1011.1 hPa North 1.1 km/h 6.1 km/h 97% 1.0 mm 49 W/m2
10:56 12.8 °C 12.3 °C 1010.7 hPa NNW 2.6 km/h 6.1 km/h 97% 0.5 mm 36 W/m2
11:01 12.8 °C 12.2 °C 1010.7 hPa NW 3.5 km/h 6.1 km/h 96% 0.3 mm 39 W/m2
11:06 12.7 °C 12.1 °C 1010.7 hPa WNW 2.6 km/h 6.1 km/h 96% 0.0 mm 45 W/m2
11:11 12.6 °C 12.0 °C 1010.4 hPa WNW 5.0 km/h 8.7 km/h 96% 0.0 mm 47 W/m2
11:16 12.6 °C 12.0 °C 1010.4 hPa WNW 5.0 km/h 8.7 km/h 96% 0.0 mm 68 W/m2
11:21 12.7 °C 12.1 °C 1010.4 hPa WNW 1.1 km/h 8.7 km/h 96% 0.0 mm 70 W/m2
11:26 12.8 °C 12.3 °C 1010.4 hPa NW 5.0 km/h 7.2 km/h 97% 0.0 mm 100 W/m2
11:31 13.0 °C 12.4 °C 1010.4 hPa NW 2.6 km/h 7.2 km/h 96% 0.0 mm 110 W/m2
11:36 13.2 °C 12.6 °C 1010.4 hPa NW 1.1 km/h 7.2 km/h 96% 0.0 mm 76 W/m2
11:41 13.2 °C 12.6 °C 1009.7 hPa ENE 6.1 km/h 7.2 km/h 96% 0.0 mm 96 W/m2
11:46 13.2 °C 12.4 °C 1009.7 hPa East 3.5 km/h 8.7 km/h 95% 0.0 mm 58 W/m2
11:51 13.2 °C 12.4 °C 1010.0 hPa East 5.0 km/h 9.7 km/h 95% 0.0 mm 53 W/m2
11:56 13.5 °C 12.6 °C 1009.7 hPa NE 6.1 km/h 31.7 km/h 94% 0.0 mm 66 W/m2
12:01 13.6 °C 12.0 °C 1009.4 hPa NNE 8.7 km/h 31.7 km/h 90% 0.0 mm 58 W/m2
12:06 13.9 °C 11.9 °C 1009.4 hPa NE 2.6 km/h 20.9 km/h 88% 0.0 mm 39 W/m2
12:11 13.9 °C 11.8 °C 1009.0 hPa NE 3.5 km/h 19.5 km/h 87% 0.0 mm 32 W/m2
12:16 13.9 °C 11.8 °C 1008.7 hPa NNE 3.5 km/h 19.5 km/h 87% 0.0 mm 33 W/m2
12:21 13.9 °C 11.8 °C 1009.0 hPa NNW 8.7 km/h 11.1 km/h 87% 0.0 mm 28 W/m2
12:26 13.9 °C 11.6 °C 1009.0 hPa NNW 8.7 km/h 15.8 km/h 86% 0.0 mm 30 W/m2
12:31 13.9 °C 11.6 °C 1009.0 hPa NW 6.1 km/h 15.8 km/h 86% 0.0 mm 32 W/m2
12:36 13.7 °C 11.6 °C 1009.0 hPa NW 12.2 km/h 14.8 km/h 87% 0.0 mm 33 W/m2
12:41 13.6 °C 11.7 °C 1008.4 hPa NNW 12.2 km/h 17.2 km/h 88% 0.0 mm 34 W/m2
12:46 13.6 °C 11.7 °C 1008.0 hPa NNW 6.1 km/h 17.2 km/h 88% 0.0 mm 37 W/m2
12:51 13.6 °C 11.7 °C 1008.7 hPa NNW 9.7 km/h 17.2 km/h 88% 0.0 mm 35 W/m2
12:56 13.6 °C 11.7 °C 1008.7 hPa NNW 12.2 km/h 24.5 km/h 88% 0.0 mm 29 W/m2
13:01 13.6 °C 11.7 °C 1008.4 hPa NNW 5.0 km/h 24.5 km/h 88% 0.0 mm 27 W/m2
13:06 13.6 °C 11.7 °C 1008.4 hPa NNW 14.8 km/h 24.5 km/h 88% 0.0 mm 21 W/m2
13:11 13.7 °C 11.6 °C 1008.4 hPa NNW 15.8 km/h 24.5 km/h 87% 0.0 mm 24 W/m2
13:16 13.9 °C 11.6 °C 1008.4 hPa NNW 13.4 km/h 21.9 km/h 86% 0.0 mm 31 W/m2
13:21 13.9 °C 11.6 °C 1008.4 hPa NNW 11.1 km/h 21.9 km/h 86% 0.0 mm 36 W/m2
13:26 14.1 °C 11.4 °C 1008.4 hPa North 5.0 km/h 18.3 km/h 84% 0.0 mm 42 W/m2
13:31 14.0 °C 11.3 °C 1008.0 hPa NNW 1.1 km/h 15.8 km/h 84% 0.0 mm 42 W/m2
13:36 13.9 °C 11.4 °C 1008.0 hPa North 2.6 km/h 7.2 km/h 85% 0.0 mm 42 W/m2
13:41 13.9 °C 11.6 °C 1008.4 hPa NNE 9.7 km/h 15.8 km/h 86% 0.0 mm 33 W/m2
13:46 13.9 °C 11.6 °C 1008.4 hPa North 6.1 km/h 15.8 km/h 86% 0.0 mm 40 W/m2
13:51 13.9 °C 11.4 °C 1008.4 hPa North 7.2 km/h 17.2 km/h 85% 0.0 mm 58 W/m2
13:56 14.1 °C 11.3 °C 1008.0 hPa NNE 13.4 km/h 21.9 km/h 83% 0.0 mm 60 W/m2
14:01 14.2 °C 11.2 °C 1008.0 hPa North 12.2 km/h 21.9 km/h 82% 0.0 mm 62 W/m2
14:06 14.3 °C 11.1 °C 1008.0 hPa North 6.1 km/h 19.5 km/h 81% 0.0 mm 65 W/m2
14:11 14.3 °C 11.1 °C 1008.0 hPa North 7.2 km/h 18.3 km/h 81% 0.0 mm 66 W/m2
14:16 14.3 °C 11.1 °C 1008.0 hPa NNE 3.5 km/h 18.3 km/h 81% 0.0 mm 59 W/m2
14:21 14.3 °C 10.9 °C 1008.0 hPa NNE 11.1 km/h 17.2 km/h 80% 0.0 mm 52 W/m2
14:26 14.3 °C 10.9 °C 1007.7 hPa NNE 11.1 km/h 19.5 km/h 80% 0.0 mm 56 W/m2
14:31 14.3 °C 10.9 °C 1008.0 hPa NNE 6.1 km/h 19.5 km/h 80% 0.0 mm 56 W/m2
14:36 14.2 °C 10.6 °C 1007.7 hPa NNE 6.1 km/h 14.8 km/h 79% 0.0 mm 50 W/m2
14:41 14.2 °C 10.6 °C 1008.0 hPa NNE 11.1 km/h 17.2 km/h 79% 0.0 mm 45 W/m2
14:46 14.2 °C 10.4 °C 1007.7 hPa North 7.2 km/h 23.3 km/h 78% 0.0 mm 43 W/m2
14:51 14.2 °C 10.2 °C 1007.7 hPa NNE 3.5 km/h 23.3 km/h 77% 0.0 mm 38 W/m2
14:56 14.1 °C 10.1 °C 1008.0 hPa North 9.7 km/h 15.8 km/h 77% 0.0 mm 36 W/m2
15:01 14.1 °C 10.1 °C 1008.0 hPa North 6.1 km/h 13.4 km/h 77% 0.0 mm 36 W/m2
15:06 14.1 °C 10.1 °C 1008.0 hPa NNE 5.0 km/h 13.4 km/h 77% 0.0 mm 35 W/m2
15:11 14.1 °C 10.1 °C 1007.7 hPa NE 8.7 km/h 12.2 km/h 77% 0.0 mm 34 W/m2
15:16 14.0 °C 10.1 °C 1007.7 hPa NNE 6.1 km/h 13.4 km/h 77% 0.0 mm 31 W/m2
15:21 14.0 °C 9.8 °C 1007.3 hPa NNE 6.1 km/h 18.3 km/h 76% 0.0 mm 30 W/m2
15:26 14.0 °C 9.8 °C 1007.3 hPa NE 7.2 km/h 18.3 km/h 76% 0.0 mm 33 W/m2
15:42 13.9 °C 10.1 °C 1007.3 hPa NNE 3.5 km/h 18.3 km/h 78% 0.0 mm 26 W/m2
15:47 13.9 °C 10.1 °C 1007.7 hPa NNE 5.0 km/h 18.3 km/h 78% 0.0 mm 24 W/m2
15:52 13.7 °C 9.9 °C 1007.7 hPa NNE 5.0 km/h 17.2 km/h 78% 0.0 mm 21 W/m2
15:58 13.7 °C 9.9 °C 1007.7 hPa NNE 6.1 km/h 17.2 km/h 78% 0.0 mm 18 W/m2
16:03 13.7 °C 9.9 °C 1007.3 hPa NE 5.0 km/h 11.1 km/h 78% 0.0 mm 14 W/m2
16:09 13.6 °C 9.8 °C 1007.7 hPa NE 3.5 km/h 8.7 km/h 78% 0.0 mm 10 W/m2
16:14 13.5 °C 9.9 °C 1007.7 hPa NE 3.5 km/h 11.1 km/h 79% 0.0 mm 7 W/m2
16:19 13.4 °C 10.0 °C 1007.7 hPa NNE 3.5 km/h 11.1 km/h 80% 0.0 mm 6 W/m2
16:24 13.4 °C 10.0 °C 1007.7 hPa NNE 3.5 km/h 6.1 km/h 80% 0.0 mm 4 W/m2
16:29 13.3 °C 9.9 °C 1007.7 hPa NE 1.1 km/h 6.1 km/h 80% 0.0 mm 2 W/m2
16:34 13.2 °C 9.8 °C 1008.0 hPa NE 2.6 km/h 5.0 km/h 80% 0.0 mm 0 W/m2
16:39 13.1 °C 9.9 °C 1007.3 hPa ENE 2.6 km/h 5.0 km/h 81% 0.0 mm 0 W/m2
16:44 13.1 °C 9.9 °C 1007.7 hPa East 1.1 km/h 5.0 km/h 81% 0.0 mm 0 W/m2
16:49 13.0 °C 9.8 °C 1007.7 hPa ESE 1.1 km/h 6.1 km/h 81% 0.0 mm 0 W/m2
16:54 12.9 °C 9.9 °C 1007.3 hPa Calm   6.1 km/h 82% 0.0 mm 0 W/m2
16:59 12.8 °C 9.8 °C 1007.3 hPa Calm   5.0 km/h 82% 0.0 mm 0 W/m2
17:19 12.0 °C 9.6 °C 1007.7 hPa Calm   3.5 km/h 85% 0.0 mm 0 W/m2
17:24 12.0 °C 9.6 °C 1007.7 hPa NW 1.1 km/h 2.6 km/h 85% 0.0 mm 0 W/m2
17:29 11.9 °C 9.8 °C 1007.7 hPa NW 1.1 km/h 2.6 km/h 87% 0.0 mm 0 W/m2
17:34 11.8 °C 9.7 °C 1007.7 hPa NNW 1.1 km/h 2.6 km/h 87% 0.0 mm 0 W/m2
17:39 11.8 °C 9.9 °C 1007.7 hPa North 1.1 km/h 5.0 km/h 88% 0.0 mm 0 W/m2
17:44 11.7 °C 9.9 °C 1007.7 hPa North 3.5 km/h 5.0 km/h 89% 0.0 mm 0 W/m2
17:49 11.7 °C 10.1 °C 1008.0 hPa NNE 2.6 km/h 6.1 km/h 90% 0.3 mm 0 W/m2
17:54 11.7 °C 10.3 °C 1007.7 hPa NE 3.5 km/h 6.1 km/h 91% 0.3 mm 0 W/m2
17:59 11.7 °C 10.3 °C 1008.0 hPa ENE 2.6 km/h 6.1 km/h 91% 0.3 mm 0 W/m2
18:04 11.6 °C 10.3 °C 1008.0 hPa ENE 1.1 km/h 5.0 km/h 92% 0.3 mm 0 W/m2
18:09 11.6 °C 10.3 °C 1008.0 hPa NNE 1.1 km/h 3.5 km/h 92% 0.5 mm 0 W/m2
18:14 11.5 °C 10.2 °C 1008.0 hPa North 1.1 km/h 3.5 km/h 92% 0.5 mm 0 W/m2
18:19 11.4 °C 10.3 °C 1008.0 hPa NNE 1.1 km/h 3.5 km/h 93% 0.5 mm 0 W/m2
18:24 11.3 °C 10.2 °C 1008.0 hPa NNE 1.1 km/h 3.5 km/h 93% 0.5 mm 0 W/m2
18:29 11.2 °C 10.1 °C 1008.0 hPa NNE 1.1 km/h 3.5 km/h 93% 1.0 mm 0 W/m2
18:34 11.2 °C 10.3 °C 1008.4 hPa Calm   3.5 km/h 94% 1.0 mm 0 W/m2
18:39 11.2 °C 10.3 °C 1008.4 hPa Calm   2.6 km/h 94% 1.0 mm 0 W/m2
18:44 11.0 °C 10.1 °C 1008.4 hPa NNW 1.1 km/h 3.5 km/h 94% 0.5 mm 0 W/m2
18:49 11.0 °C 10.2 °C 1008.4 hPa NW 1.1 km/h 3.5 km/h 95% 1.0 mm 0 W/m2
18:54 11.0 °C 10.2 °C 1008.4 hPa NNW 1.1 km/h 2.6 km/h 95% 1.0 mm 0 W/m2
18:59 11.0 °C 10.2 °C 1008.4 hPa NNE 1.1 km/h 3.5 km/h 95% 1.3 mm 0 W/m2
19:04 11.0 °C 10.4 °C 1008.4 hPa Calm   3.5 km/h 96% 1.3 mm 0 W/m2
19:09 11.0 °C 10.4 °C 1008.4 hPa Calm   2.6 km/h 96% 1.3 mm 0 W/m2
19:14 10.9 °C 10.4 °C 1008.0 hPa Calm   1.1 km/h 97% 1.3 mm 0 W/m2
19:19 10.9 °C 10.4 °C 1008.0 hPa Calm   1.1 km/h 97% 1.5 mm 0 W/m2
19:24 10.9 °C 10.6 °C 1008.0 hPa Calm   1.1 km/h 98% 1.8 mm 0 W/m2
19:29 10.9 °C 10.6 °C 1007.7 hPa NE 1.1 km/h 2.6 km/h 98% 1.8 mm 0 W/m2
19:34 11.0 °C 10.6 °C 1007.7 hPa NE 2.6 km/h 3.5 km/h 97% 1.8 mm 0 W/m2
19:39 11.0 °C 10.6 °C 1007.7 hPa ENE 2.6 km/h 5.0 km/h 97% 2.0 mm 0 W/m2
19:44 11.0 °C 10.7 °C 1007.3 hPa ENE 5.0 km/h 7.2 km/h 98% 2.0 mm 0 W/m2
19:49 11.0 °C 10.7 °C 1007.3 hPa NE 1.1 km/h 7.2 km/h 98% 2.0 mm 0 W/m2
19:54 11.0 °C 10.7 °C 1007.0 hPa NE 5.0 km/h 7.2 km/h 98% 2.0 mm 0 W/m2
19:59 11.0 °C 10.7 °C 1007.0 hPa NE 8.7 km/h 15.8 km/h 98% 2.0 mm 0 W/m2
20:04 11.1 °C 10.8 °C 1007.0 hPa ENE 2.6 km/h 15.8 km/h 98% 2.0 mm 0 W/m2
20:09 11.1 °C 10.8 °C 1006.7 hPa East 2.6 km/h 12.2 km/h 98% 1.8 mm 0 W/m2
20:14 11.1 °C 10.8 °C 1007.0 hPa East 1.1 km/h 6.1 km/h 98% 1.8 mm 0 W/m2
20:19 11.0 °C 10.7 °C 1007.3 hPa WNW 3.5 km/h 5.0 km/h 98% 1.5 mm 0 W/m2
20:24 11.0 °C 10.7 °C 1007.3 hPa NW 5.0 km/h 7.2 km/h 98% 1.3 mm 0 W/m2
20:29 11.0 °C 10.7 °C 1007.3 hPa NNW 6.1 km/h 8.7 km/h 98% 1.0 mm 0 W/m2
20:34 10.9 °C 10.8 °C 1007.7 hPa NNW 7.2 km/h 12.2 km/h 99% 1.0 mm 0 W/m2
20:39 10.9 °C 10.8 °C 1007.7 hPa NNW 6.1 km/h 12.2 km/h 99% 0.5 mm 0 W/m2
20:44 10.8 °C 10.7 °C 1007.3 hPa NNW 3.5 km/h 11.1 km/h 99% 0.5 mm 0 W/m2
20:49 10.8 °C 10.7 °C 1007.3 hPa NNW 3.5 km/h 11.1 km/h 99% 0.3 mm 0 W/m2
20:54 10.8 °C 10.7 °C 1007.3 hPa NNW 1.1 km/h 8.7 km/h 99% 0.3 mm 0 W/m2
20:59 10.8 °C 10.7 °C 1007.3 hPa North 1.1 km/h 6.1 km/h 99% 0.0 mm 0 W/m2
21:04 10.7 °C 10.6 °C 1007.3 hPa NNE 2.6 km/h 5.0 km/h 99% 0.0 mm 0 W/m2
21:09 10.7 °C 10.6 °C 1007.3 hPa NE 2.6 km/h 3.5 km/h 99% 0.0 mm 0 W/m2
21:14 10.6 °C 10.4 °C 1007.0 hPa NE 2.6 km/h 6.1 km/h 99% 0.0 mm 0 W/m2
21:19 10.6 °C 10.4 °C 1007.0 hPa NNE 5.0 km/h 8.7 km/h 99% 0.0 mm 0 W/m2
21:24 10.6 °C 10.4 °C 1007.0 hPa NNE 5.0 km/h 8.7 km/h 99% 0.0 mm 0 W/m2
21:29 10.6 °C 10.4 °C 1007.0 hPa NNE 6.1 km/h 9.7 km/h 99% 0.0 mm 0 W/m2
21:34 10.6 °C 10.4 °C 1006.7 hPa NE 3.5 km/h 9.7 km/h 99% 0.0 mm 0 W/m2
21:39 10.6 °C 10.4 °C 1006.7 hPa NE 5.0 km/h 9.7 km/h 99% 0.0 mm 0 W/m2
21:44 10.7 °C 10.6 °C 1006.7 hPa NE 3.5 km/h 9.7 km/h 99% 0.0 mm 0 W/m2
21:49 10.8 °C 10.7 °C 1006.7 hPa NE 2.6 km/h 9.7 km/h 99% 0.0 mm 0 W/m2
21:54 10.8 °C 10.7 °C 1006.7 hPa NE 5.0 km/h 9.7 km/h 99% 0.0 mm 0 W/m2
21:59 10.8 °C 10.7 °C 1006.7 hPa North 2.6 km/h 7.2 km/h 99% 0.0 mm 0 W/m2
22:04 10.9 °C 10.8 °C 1006.3 hPa North 1.1 km/h 6.1 km/h 99% 0.0 mm 0 W/m2
22:09 10.9 °C 10.8 °C 1006.3 hPa NNE 1.1 km/h 5.0 km/h 99% 0.0 mm 0 W/m2
22:14 10.8 °C 10.7 °C 1006.3 hPa NNE 2.6 km/h 3.5 km/h 99% 0.3 mm 0 W/m2
22:19 10.8 °C 10.7 °C 1006.3 hPa North 2.6 km/h 5.0 km/h 99% 0.3 mm 0 W/m2
22:24 10.8 °C 10.7 °C 1006.3 hPa North 3.5 km/h 5.0 km/h 99% 0.3 mm 0 W/m2
22:29 10.7 °C 10.6 °C 1006.3 hPa North 3.5 km/h 6.1 km/h 99% 0.3 mm 0 W/m2
22:34 10.7 °C 10.6 °C 1006.3 hPa North 2.6 km/h 6.1 km/h 99% 0.5 mm 0 W/m2
22:39 10.7 °C 10.6 °C 1006.0 hPa North 2.6 km/h 7.2 km/h 99% 0.5 mm 0 W/m2
22:44 10.7 °C 10.6 °C 1006.0 hPa North 2.6 km/h 7.2 km/h 99% 0.5 mm 0 W/m2
22:49 10.8 °C 10.7 °C 1006.0 hPa NNE 1.1 km/h 6.1 km/h 99% 0.5 mm 0 W/m2
22:50 10.8 °C 10.7 °C 1006.0 hPa NNE 2.6 km/h 6.1 km/h 99% 0.5 mm 0 W/m2
22:55 10.8 °C 10.7 °C 1006.0 hPa NE 3.5 km/h 6.1 km/h 99% 0.5 mm 0 W/m2
23:01 10.8 °C 10.7 °C 1005.6 hPa NE 5.0 km/h 7.2 km/h 99% 0.5 mm 0 W/m2
23:06 10.8 °C 10.7 °C 1005.6 hPa NE 2.6 km/h 7.2 km/h 99% 0.5 mm 0 W/m2
23:11 10.8 °C 10.7 °C 1005.6 hPa NE 1.1 km/h 6.1 km/h 99% 0.3 mm 0 W/m2
23:16 10.7 °C 10.6 °C 1005.3 hPa Calm   5.0 km/h 99% 0.3 mm 0 W/m2
23:21 10.7 °C 10.6 °C 1005.3 hPa NNE 1.1 km/h 5.0 km/h 99% 0.3 mm 0 W/m2
23:26 10.6 °C 10.4 °C 1005.0 hPa NNW 2.6 km/h 3.5 km/h 99% 0.3 mm 0 W/m2
23:31 10.6 °C 10.4 °C 1005.0 hPa Calm   3.5 km/h 99% 0.0 mm 0 W/m2
23:51 10.4 °C 10.3 °C 1005.3 hPa NW 5.0 km/h 8.7 km/h 99% 0.0 mm 0 W/m2
23:57 10.4 °C 10.3 °C 1005.3 hPa NW 6.1 km/h 8.7 km/h 99% 0.0 mm 0 W/m2
Northern Hawkes Bay. New Zealand Historic Data
Compliments of Weather Underground - 2.25 mb